| time (UTC) | temp F | wind direction | speed MPH | gust MPH | rain 1hr in | rain 24hr in | rain mn in | humidity % | barometer mb |
| 20260505051515 | 76 | 291 | 7.0 | 16.0 | 0.00 | 0.00 | 0.00 | 33 | 1005.5 |
| 20260505041605 | 78 | 279 | 1.0 | 20.0 | 0.00 | 0.00 | 0.00 | 31 | 1005.0 |
| 20260505040103 | 78 | 263 | 3.0 | 12.0 | 0.00 | 0.00 | 0.00 | 31 | 1004.8 |
| 20260505034604 | 78 | 263 | 2.0 | 10.0 | 0.00 | 0.00 | 0.00 | 31 | 1004.6 |
| 20260505033105 | 78 | 291 | 2.0 | 8.0 | 0.00 | 0.00 | 0.00 | 30 | 1004.3 |
| 20260505031558 | 79 | 275 | 0.0 | 10.0 | 0.00 | 0.00 | 0.00 | 29 | 1004.1 |
| 20260505030057 | 80 | 288 | 0.0 | 7.0 | 0.00 | 0.00 | 0.00 | 28 | 1003.9 |
| 20260505024539 | 81 | 300 | 0.0 | 11.0 | 0.00 | 0.00 | 0.00 | 27 | 1003.7 |
| 20260505023040 | 83 | 279 | 0.0 | 10.0 | 0.00 | 0.00 | 0.00 | 26 | 1003.5 |
| 20260505021519 | 85 | 320 | 0.0 | 13.0 | 0.00 | 0.00 | 0.00 | 24 | 1003.5 |
| 20260505020025 | 86 | 273 | 0.0 | 1.0 | 0.00 | 0.00 | 0.00 | 23 | 1003.4 |
| 20260505014608 | 85 | 65 | 0.0 | 0.0 | 0.00 | 0.00 | 0.00 | 25 | 1003.3 |
| 20260505013103 | 85 | 295 | 0.0 | 3.0 | 0.00 | 0.00 | 0.00 | 24 | 1003.4 |
| 20260505011545 | 85 | 289 | 0.0 | 8.0 | 0.00 | 0.00 | 0.00 | 23 | 1003.4 |
| 20260505010055 | 85 | 296 | 0.0 | 9.0 | 0.00 | 0.00 | 0.00 | 23 | 1003.5 |
| 20260505004522 | 86 | 300 | 4.0 | 13.0 | 0.00 | 0.00 | 0.00 | 23 | 1003.5 |
| 20260505003021 | 87 | 270 | 1.0 | 12.0 | 0.00 | 0.00 | 0.00 | 22 | 1003.6 |
| 20260505001502 | 88 | 195 | 0.0 | 2.0 | 0.00 | 0.00 | 0.00 | 20 | 1003.6 |
| 20260505000108 | 88 | 269 | 0.0 | 3.0 | 0.00 | 0.00 | 0.00 | 21 | 1003.6 |
| 20260504234541 | 87 | 303 | 4.0 | 9.0 | 0.00 | 0.00 | 0.00 | 22 | 1003.7 |
| 20260504233040 | 87 | 250 | 3.0 | 10.0 | 0.00 | 0.00 | 0.00 | 20 | 1003.8 |
| 20260504231522 | 87 | 220 | 0.0 | 11.0 | 0.00 | 0.00 | 0.00 | 21 | 1003.9 |
| 20260504230021 | 87 | 254 | 0.0 | 4.0 | 0.00 | 0.00 | 0.00 | 20 | 1004.1 |
| 20260504224502 | 87 | 263 | 6.0 | 10.0 | 0.00 | 0.00 | 0.00 | 19 | 1004.3 |
| 20260504223002 | 87 | 281 | 0.0 | 12.0 | 0.00 | 0.00 | 0.00 | 19 | 1004.4 |
| 20260504221542 | 88 | 151 | 0.0 | 1.0 | 0.00 | 0.00 | 0.00 | 19 | 1004.6 |
| 20260504220047 | 88 | 167 | 0.0 | 6.0 | 0.00 | 0.00 | 0.00 | 19 | 1004.8 |
| 20260504214520 | 87 | 160 | 0.0 | 3.0 | 0.00 | 0.00 | 0.00 | 19 | 1005.0 |
| 20260504213017 | 87 | 244 | 0.0 | 2.0 | 0.00 | 0.00 | 0.00 | 19 | 1005.2 |
| 20260504211557 | 85 | 292 | 0.0 | 2.0 | 0.00 | 0.00 | 0.00 | 20 | 1005.4 |
| 20260504204541 | 85 | 162 | 0.0 | 3.0 | 0.00 | 0.00 | 0.00 | 20 | 1005.8 |
| 20260504203035 | 85 | 292 | 1.0 | 9.0 | 0.00 | 0.00 | 0.00 | 21 | 1005.9 |
| 20260504201515 | 86 | 307 | 0.0 | 2.0 | 0.00 | 0.00 | 0.00 | 21 | 1006.1 |
| 20260504200012 | 85 | 92 | 0.0 | 3.0 | 0.00 | 0.00 | 0.00 | 22 | 1006.3 |
| 20260504194556 | 84 | 266 | 0.0 | 0.0 | 0.00 | 0.00 | 0.00 | 24 | 1006.3 |
| 20260504193102 | 84 | 287 | 0.0 | 0.0 | 0.00 | 0.00 | 0.00 | 24 | 1006.5 |
| 20260504191529 | 83 | 224 | 0.0 | 0.0 | 0.00 | 0.00 | 0.00 | 24 | 1006.6 |
| 20260504190029 | 82 | 287 | 0.0 | 8.0 | 0.00 | 0.00 | 0.00 | 26 | 1006.9 |
| 20260504184507 | 81 | 259 | 4.0 | 13.0 | 0.00 | 0.00 | 0.00 | 26 | 1006.9 |
| 20260504183002 | 80 | 252 | 0.0 | 9.0 | 0.00 | 0.00 | 0.00 | 26 | 1007.1 |
| 20260504181541 | 80 | 249 | 0.0 | 13.0 | 0.00 | 0.00 | 0.00 | 27 | 1007.1 |
| 20260504180105 | 79 | 184 | 0.0 | 8.0 | 0.00 | 0.00 | 0.00 | 28 | 1007.2 |
| 20260504174520 | 78 | 251 | 0.0 | 9.0 | 0.00 | 0.00 | 0.00 | 30 | 1007.2 |
| 20260504173015 | 76 | 203 | 0.0 | 8.0 | 0.00 | 0.00 | 0.00 | 30 | 1007.3 |
| 20260504171553 | 75 | 238 | 0.0 | 11.0 | 0.00 | 0.00 | 0.00 | 31 | 1007.4 |
| 20260504120109 | 53 | 103 | 0.0 | 0.0 | 0.00 | 0.00 | 0.00 | 70 | 1007.2 |
| 20260504081523 | 57 | 109 | 0.0 | 0.0 | 0.00 | 0.00 | 0.00 | 63 | 1007.3 |